Find TUBSAT-30

NORAD ID: 60240 Int'l Des: 2024-128 Owner: TUB Country: D operational
LEOCIRCULAR

Live-Position

3D-Globus wird geladen...

Über TUBSAT-30

Beschreibung wird geladen...

Nächste Überflüge

Passes for default location (London). Set your location on the main map for personalized predictions.

Höhenverlauf

Loading altitude history...

Zweizeiliger Elementsatz

1 60240U 24128F 26105.16930194 .00001158 00000-0 10046-3 0 9995
2 60240 61.9932 85.2594 0051513 119.9801 240.6417 15.02462854 96647
Epoch: 15. Apr. 2026 • Age: 7 hours

Aktueller Status

Höhe 529.6 km
Geschwindigkeit 7.62 km/s
Subsatellitenpunkt 30.04°N, 123.61°W
Startdatum 9. Juli 2024
Alter 1.7 years
Typ other

Technische Details

Klassifizierung Payload
Masse 17.00 kg
Trockenmasse 17.00 kg
Gesamtmasse 17.00 kg
Länge 0.25 m
Durchmesser 0.25 m
Spannweite 0.25 m
Form Cube
Hersteller TUB
Bus-Typ TubSat
Phasenstatus In Orbit
Besitzer/Staat TUB/D

Most Searched